This is the latest recevied weather packets stored in our database for station/object K1BWE-1. If no packets are shown the sender has not sent any weather packets the latest 10 day(s).
| Time | Temp. | Humidity | Pressure | Rain* | Wind** | Luminosity | Snow |
|---|---|---|---|---|---|---|---|
| 1777912292 | 23.89° C | 29% | 1015.4 hPa | 0 mm | - | 803 W/m² | - |
| 1777911988 | 23.89° C | 30% | 1015.3 hPa | 0 mm | - | 750 W/m² | - |
| 1777911685 | 23.33° C | 32% | 1015.4 hPa | 0 mm | - | 517 W/m² | - |
| 1777911079 | 23.33° C | 30% | 1015.5 hPa | 0 mm | - | 519 W/m² | - |
| 1777908657 | 22.78° C | 32% | 1015.3 hPa | 0 mm | - | 219 W/m² | - |
| 1777908353 | 22.22° C | 33% | 1015 hPa | 0 mm | - | 200 W/m² | - |
| 1777907137 | 22.78° C | 32% | 1015.2 hPa | 0 mm | - | 205 W/m² | - |
| 1777906835 | 22.78° C | 32% | 1015.3 hPa | 0 mm | - | 324 W/m² | - |
| 1777906532 | 22.22° C | 32% | 1015.3 hPa | 0 mm | - | 317 W/m² | - |
| 1777906227 | 22.22° C | 34% | 1015.3 hPa | 0 mm | - | 268 W/m² | - |
| 1777905318 | 22.22° C | 33% | 1015.2 hPa | 0 mm | - | 183 W/m² | - |
| 1777905016 | 22.78° C | 33% | 1015.2 hPa | 0 mm | - | 202 W/m² | - |
| 1777904713 | 21.67° C | 34% | 1015 hPa | 0 mm | - | 201 W/m² | - |
| 1777903196 | 20.56° C | 36% | 1015.3 hPa | 0 mm | - | 72 W/m² | - |
| 1777901682 | 20.56° C | 35% | 1015.3 hPa | 0 mm | - | 53 W/m² | - |
| 1777901379 | 21.11° C | 35% | 1015.3 hPa | 0 mm | - | 59 W/m² | - |
| 1777901076 | 21.11° C | 34% | 1015.2 hPa | 0 mm | - | 60 W/m² | - |
| 1777900773 | 20.56° C | 34% | 1014.7 hPa | 0 mm | - | 49 W/m² | - |
| 1777900471 | 20.56° C | 35% | 1014.8 hPa | 0 mm | - | 47 W/m² | - |
| 1777900167 | 20.56° C | 34% | 1014.7 hPa | 0 mm | - | 41 W/m² | - |
| 1777898956 | 20° C | 33% | 1014.7 hPa | 0 mm | - | 8 W/m² | - |
| 1777898653 | 20° C | 33% | 1014.5 hPa | 0 mm | - | 5 W/m² | - |
| 1777898350 | 20° C | 33% | 1014.3 hPa | 0 mm | - | 1 W/m² | - |
| 1777898048 | 20° C | 33% | 1014.4 hPa | 0 mm | - | 0 W/m² | - |
| 1777897743 | 20° C | 32% | 1014.5 hPa | 0 mm | - | 0 W/m² | - |
* Rain latest hour (hover to see other rain measurements)
** Current wind speed in m/s (hover to see current wind gust speed)